Cluj, Romania

8:41 PM EEST on April 29, 2017 (GMT +0300)
Someseni

Weather History for LRCL - May, 2013

Change the Weather History Date:

Tuesday, May 21, 2013

  Actual Average (LRTM) Record (LRTM)
Temperature  
Mean Temperature 60 °F -  
Max Temperature 72 °F 72 °F 84 °F (2007)
Min Temperature 47 °F 50 °F 40 °F (2016)
Degree Days  
Heating Degree Days 6    
Growing Degree Days 10 (Base 50)    
Moisture  
Dew Point 50 °F    
Average Humidity 74    
Maximum Humidity 100    
Minimum Humidity 38    
Precipitation  
Precipitation 0.00 in 0.11 in - ()
Sea Level Pressure  
Sea Level Pressure 29.98 in    
Wind  
Wind Speed 4 mph ()    
Max Wind Speed 14 mph    
Max Gust Speed -    
Visibility 7.2 miles    
Events Fog , Rain    
Averages and records for this station are not official NWS values.
T = Trace of Precipitation, MM = Missing Value Source: Averaged Metar Reports

Daily Weather History Graph

Daily Weather History Graph

Search for Another Location

Airport or City:

Trip Planner

Search our weather history database for the weather conditions in past years. The results will help you decide how hot, cold, wet, or windy it might be!

Date:

Astronomy

May. 21, 2013 Rise Set
Actual Time 5:44 AM EEST 9:00 PM EEST
Civil Twilight 5:07 AM EEST 9:37 PM EEST
Nautical Twilight 4:19 AM EEST 10:25 PM EEST
Astronomical Twilight 3:19 AM EEST 11:26 PM EEST
Moon 4:39 PM EEST (5/21) 3:17 AM EEST (5/21)
Length of Visible Light 16h 30m
Length of Day
15h 16m
Waxing Gibbous, 81% of the Moon is Illuminated
May 21
Waxing Gibbous
May 25
Full
May 31
Last Quarter
Jun 8
New
Jun 16
First Quarter

Hourly Weather History & Observations

Time (EEST) Temp. Windchill Dew Point Humidity Pressure Visibility Wind Dir Wind Speed Gust Speed Precip Events Conditions
12:00 AM 55 °F - 54 °F 98% 30.01 in 6 mi West 4.5 mph - -  
1:00 AM 53 °F - 53 °F 99% 30.02 in 6 mi SW 4.5 mph - -  
1:00 AM 53.6 °F - 51.8 °F 94% 30.01 in - West 4.6 mph - N/A   Clear
2:00 AM 51 °F - 51 °F 100% 30.03 in 6 mi SW 4.5 mph - -  
2:00 AM 53.6 °F - 51.8 °F 94% 30.01 in - Calm Calm - N/A   Clear
3:00 AM 51 °F - 50 °F 96% 30.03 in 6 mi SW 4.5 mph - -  
4:00 AM 49 °F - 49 °F 99% 30.04 in 6 mi WSW 6.7 mph - -  
4:00 AM 50.0 °F - 48.2 °F 94% 30.01 in - WSW 4.6 mph - N/A   Clear
5:00 AM 49 °F - 48 °F 93% 30.03 in 6 mi SW 6.7 mph - -  
5:00 AM 50.0 °F - 48.2 °F 94% 30.01 in 3.1 mi Calm Calm - N/A Fog Fog
5:30 AM 46.4 °F 44.3 °F 44.6 °F 93% 30.01 in 0.9 mi East 4.6 mph - N/A Fog Fog
6:00 AM 47 °F - 47 °F 98% 30.03 in 6 mi SW 4.5 mph - -  
6:00 AM 46.4 °F - 46.4 °F 100% 30.01 in 1.2 mi SSE 2.3 mph - N/A Fog Fog
6:30 AM 46.4 °F - 46.4 °F 100% 30.01 in 0.9 mi Calm Calm - N/A Fog Fog
7:00 AM 47 °F - 46 °F 96% 30.03 in 12 mi SW 4.5 mph - -   Scattered Clouds
7:00 AM 48.2 °F - 48.2 °F 100% 30.01 in 1.1 mi East 2.3 mph - N/A Fog Fog
7:30 AM 48.2 °F - 48.2 °F 100% 30.01 in 1.1 mi East 4.6 mph - N/A Fog Fog
8:00 AM 52 °F - 47 °F 79% 30.02 in 12 mi SSW 4.5 mph - -   Partly Cloudy
8:00 AM 50.0 °F - 50.0 °F 100% 30.01 in - NE 2.3 mph - N/A   Clear
8:30 AM 51.8 °F - 50.0 °F 94% 30.01 in - Variable 2.3 mph - N/A   Clear
9:00 AM 55 °F - 47 °F 68% 30.01 in 12 mi South 2.2 mph - -   Partly Cloudy
9:00 AM 55.4 °F - 50.0 °F 82% 30.01 in - NE 4.6 mph - N/A   Clear
9:30 AM 55.4 °F - 51.8 °F 88% 30.01 in - ENE 4.6 mph - N/A   Clear
10:00 AM 59 °F - 49 °F 62% 30.00 in 12 mi NNW 4.5 mph - -   Mostly Cloudy
10:00 AM 57.2 °F - 53.6 °F 88% 30.01 in - ENE 4.6 mph - N/A   Clear
10:30 AM 60.8 °F - 55.4 °F 82% 30.01 in 6.2 mi Variable 2.3 mph - N/A   Partly Cloudy
11:00 AM 65 °F - 51 °F 50% 29.99 in 12 mi NNE 2.2 mph - -   Mostly Cloudy
11:00 AM 62.6 °F - 53.6 °F 72% 30.01 in 6.2 mi NE 4.6 mph - N/A   Scattered Clouds
11:30 AM 62.6 °F - 51.8 °F 68% 30.01 in 6.2 mi North 11.5 mph - N/A   Partly Cloudy
12:00 PM 60 °F - 50 °F 62% 30.00 in 12 mi NW 8.9 mph - - Rain Light Rain Showers
12:00 PM 60.8 °F - 50.0 °F 68% 30.01 in 6.2 mi NNW 11.5 mph - N/A Rain Light Rain Showers
12:30 PM 59.0 °F - 51.8 °F 77% 30.04 in 6.2 mi NNW 9.2 mph - N/A Rain Light Rain Showers
1:00 PM 59 °F - 51 °F 69% 30.01 in 12 mi NNW 8.9 mph - - Rain Light Rain Showers
1:00 PM 60.8 °F - 53.6 °F 77% 30.01 in 6.2 mi North 13.8 mph - N/A   Partly Cloudy
1:30 PM 60.8 °F - 51.8 °F 72% 30.01 in 6.2 mi North 13.8 mph - N/A   Partly Cloudy
2:00 PM 60 °F - 53 °F 69% 30.00 in 12 mi South 2.2 mph - - Rain Light Rain Showers
2:00 PM 64.4 °F - 51.8 °F 64% 30.01 in 6.2 mi NNW 4.6 mph - N/A   Scattered Clouds
2:30 PM 64.4 °F - 50.0 °F 59% 29.98 in 6.2 mi NE 4.6 mph - N/A   Partly Cloudy
3:00 PM 63 °F - 50 °F 53% 29.98 in 12 mi Calm Calm - -   Partly Cloudy
3:00 PM 66.2 °F - 50.0 °F 56% 29.98 in 6.2 mi Variable 4.6 mph - N/A   Partly Cloudy
3:30 PM 68.0 °F - 51.8 °F 56% 29.98 in 6.2 mi West 4.6 mph - N/A   Partly Cloudy
4:00 PM 68 °F - 52 °F 47% 29.95 in 12 mi West 2.2 mph - -   Mostly Cloudy
4:00 PM 69.8 °F - 50.0 °F 49% 29.98 in 6.2 mi Variable 2.3 mph - N/A   Scattered Clouds
4:30 PM 69.8 °F - 51.8 °F 53% 29.95 in 6.2 mi Variable 2.3 mph - N/A   Scattered Clouds
5:00 PM 70 °F - 50 °F 38% 29.91 in 12 mi SW 2.2 mph - -   Partly Cloudy
5:00 PM 68.0 °F - 50.0 °F 52% 29.95 in 6.2 mi NE 4.6 mph - N/A   Scattered Clouds
5:30 PM 68.0 °F - 50.0 °F 52% 29.92 in 6.2 mi Variable 2.3 mph - N/A   Scattered Clouds
6:00 PM 69 °F - 49 °F 38% 29.91 in 12 mi WNW 4.5 mph - -   Partly Cloudy
6:00 PM 68.0 °F - 51.8 °F 56% 29.95 in 6.2 mi Variable 2.3 mph - N/A   Mostly Cloudy
6:30 PM 68.0 °F - 51.8 °F 56% 29.95 in 6.2 mi NNE 4.6 mph - N/A   Mostly Cloudy
7:00 PM 68.0 °F - 48.2 °F 49% 29.95 in 6.2 mi North 6.9 mph - N/A   Mostly Cloudy
7:30 PM 66.2 °F - 50.0 °F 56% 29.95 in 6.2 mi NE 4.6 mph - N/A   Mostly Cloudy
8:00 PM 66 °F - 47 °F 39% 29.91 in 12 mi North 2.2 mph - -   Overcast
8:00 PM 64.4 °F - 50.0 °F 59% 29.92 in 6.2 mi NNE 4.6 mph - N/A   Partly Cloudy
8:30 PM 62.6 °F - 51.8 °F 68% 29.92 in 6.2 mi NE 4.6 mph - N/A   Partly Cloudy
9:00 PM 64 °F - 49 °F 47% 29.91 in 12 mi NE 2.2 mph - -   Mostly Cloudy
9:00 PM 62.6 °F - 53.6 °F 72% 29.92 in - East 2.3 mph - N/A   Clear
9:30 PM 60.8 °F - 53.6 °F 77% 29.92 in - Variable 2.3 mph - N/A   Clear
10:00 PM 61 °F - 52 °F 64% 29.92 in 6 mi NNE 2.2 mph - -   Partly Cloudy
10:00 PM 59.0 °F - 51.8 °F 77% 29.95 in - Variable 2.3 mph - N/A   Clear
10:30 PM 57.2 °F - 53.6 °F 88% 29.95 in - Variable 2.3 mph - N/A   Clear
11:00 PM 57 °F - 51 °F 73% 29.93 in 6 mi West 2.2 mph - -   Partly Cloudy
11:00 PM 55.4 °F - 51.8 °F 88% 29.92 in - Variable 2.3 mph - N/A   Clear
11:30 PM 55.4 °F - 51.8 °F 88% 29.92 in - Calm Calm - N/A   Clear